Custer, SD

2:27 AM MST on February 25, 2017 (GMT -0700)
Custer County

Weather History for KCUT - November, 2012

Change the Weather History Date:

Sunday, November 11, 2012

  Actual Average Record
Temperature  
Mean Temperature 9 °F 34 °F  
Max Temperature 17 °F 44 °F 66 °F (1999)
Min Temperature 0 °F 23 °F -10 °F (1986)
Degree Days  
Heating Degree Days 56 31  
Month to date heating degree days 307 321  
Since 1 July heating degree days 1327 1500  
Cooling Degree Days 0 0  
Month to date cooling degree days 0 0  
Year to date cooling degree days 390 177  
Moisture  
Dew Point 3 °F    
Average Humidity 75    
Maximum Humidity 95    
Minimum Humidity 54    
Precipitation  
Precipitation 0.00 in 0.02 in 0.28 in (1938)
Month to date precipitation 0.29 0.26  
Year to date precipitation 11.86 18.22  
Sea Level Pressure  
Sea Level Pressure 30.02 in    
Wind  
Wind Speed 11 mph (WNW)    
Max Wind Speed 29 mph    
Max Gust Speed 41 mph    
Visibility 9 miles    
Events Snow    
T = Trace of Precipitation, MM = Missing Value Source: NWS Daily Summary

Daily Weather History Graph

Daily Weather History Graph

Search for Another Location

Airport or City:

Trip Planner

Search our weather history database for the weather conditions in past years. The results will help you decide how hot, cold, wet, or windy it might be!

Date:

Astronomy

Nov. 11, 2012 Rise Set
Actual Time 6:44 AM MST 4:32 PM MST
Civil Twilight 6:13 AM MST 5:03 PM MST
Nautical Twilight 5:38 AM MST 5:37 PM MST
Astronomical Twilight 5:05 AM MST 6:11 PM MST
Moon 3:56 AM MST (11/11) 3:00 PM MST (11/11)
Length of Visible Light 10h 49m
Length of Day
9h 48m
Waning Crescent, 7% of the Moon is Illuminated
Nov 11
Waning Crescent
Nov 13
New
Nov 20
First Quarter
Nov 28
Full
Dec 6
Last Quarter

Hourly Weather History & Observations

Time (MST) Temp. Windchill Dew Point Humidity Pressure Visibility Wind Dir Wind Speed Gust Speed Precip Events Conditions
12:53 AM 5.0 °F - 1.0 °F 84% 29.91 in 10.0 mi Calm Calm - N/A   Clear
1:53 AM 1.9 °F - -0.9 °F 88% 29.94 in 10.0 mi Calm Calm - N/A   Clear
2:53 AM 1.9 °F - -2.0 °F 83% 29.96 in 10.0 mi Calm Calm - N/A   Clear
3:53 AM 9.0 °F -0.9 °F -0.9 °F 64% 29.94 in 10.0 mi Variable 5.8 mph 20.7 mph N/A   Clear
4:53 AM 9.0 °F -5.1 °F -0.0 °F 67% 29.95 in 8.0 mi WNW 10.4 mph 16.1 mph N/A   Clear
5:53 AM 9.0 °F 2.4 °F -0.0 °F 67% 29.95 in 10.0 mi Variable 3.5 mph - N/A   Clear
6:53 AM 10.0 °F -3.7 °F 1.0 °F 67% 29.96 in 5.0 mi WNW 10.4 mph 26.5 mph 0.00 in Snow Light Snow
7:48 AM 12.2 °F -5.3 °F 1.4 °F 62% 29.77 in 4.0 mi NW 18.4 mph 32.2 mph 0.00 in Snow Light Snow
7:53 AM 12.0 °F -4.0 °F 1.0 °F 61% 29.98 in 6.0 mi WNW 15.0 mph 33.4 mph 0.00 in Snow Blowing Snow
8:53 AM 12.9 °F -3.4 °F 1.9 °F 62% 29.99 in 10.0 mi WNW 16.1 mph 28.8 mph 0.00 in   Clear
9:53 AM 15.1 °F -0.1 °F 3.0 °F 59% 30.02 in 10.0 mi WNW 15.0 mph 27.6 mph N/A   Clear
10:53 AM 15.1 °F -3.7 °F 3.0 °F 59% 30.04 in 10.0 mi West 24.2 mph 32.2 mph N/A   Clear
11:53 AM 14.0 °F -3.4 °F 3.0 °F 62% 30.05 in 10.0 mi WNW 19.6 mph 34.5 mph N/A   Mostly Cloudy
12:42 PM 15.8 °F -1.5 °F 3.2 °F 58% 29.82 in 9.0 mi WNW 20.7 mph 36.8 mph 0.00 in   Mostly Cloudy
1:53 PM 17.1 °F 1.0 °F 3.9 °F 56% 30.07 in 10.0 mi West 18.4 mph 31.1 mph 0.00 in   Unknown
2:53 PM 16.0 °F -1.7 °F 3.0 °F 57% 30.10 in 10.0 mi West 21.9 mph 34.5 mph N/A   Overcast
3:16 PM 15.8 °F -0.2 °F 3.2 °F 58% 29.86 in 10.0 mi WNW 17.3 mph 29.9 mph N/A   Overcast
3:53 PM 14.0 °F 1.2 °F 3.9 °F 64% 30.12 in 10.0 mi West 10.4 mph 23.0 mph N/A   Mostly Cloudy
4:06 PM 14.0 °F 0.5 °F 3.2 °F 62% 29.87 in 10.0 mi WNW 11.5 mph 21.9 mph N/A   Scattered Clouds
4:53 PM 12.9 °F -1.6 °F 3.0 °F 65% 30.11 in 10.0 mi WNW 12.7 mph 23.0 mph N/A   Partly Cloudy
5:53 PM 12.0 °F -3.4 °F 3.0 °F 67% 30.14 in 10.0 mi West 13.8 mph 25.3 mph N/A   Clear
6:34 PM 12.2 °F -1.8 °F 3.2 °F 67% 29.92 in 10.0 mi WNW 11.5 mph 19.6 mph N/A   Mostly Cloudy
6:53 PM 12.0 °F -0.4 °F 3.0 °F 67% 30.17 in 10.0 mi West 9.2 mph 20.7 mph N/A   Overcast
7:53 PM 12.9 °F -0.2 °F 5.0 °F 71% 30.17 in 10.0 mi West 10.4 mph 24.2 mph N/A   Overcast
8:53 PM 12.9 °F -0.9 °F 6.1 °F 74% 30.18 in 10.0 mi WNW 11.5 mph - N/A   Overcast
9:53 PM 12.0 °F -3.4 °F 5.0 °F 73% 30.19 in 10.0 mi West 13.8 mph 18.4 mph N/A   Overcast
10:53 PM 12.0 °F -2.0 °F 5.0 °F 73% 30.19 in 10.0 mi West 11.5 mph 23.0 mph N/A   Mostly Cloudy
11:39 PM 12.2 °F -3.1 °F 5.0 °F 73% 29.98 in 10.0 mi West 13.8 mph 19.6 mph N/A   Scattered Clouds
11:53 PM 12.0 °F -3.4 °F 5.0 °F 73% 30.20 in 10.0 mi West 13.8 mph 24.2 mph N/A   Partly Cloudy